#datetime,building,power
2021-12-28T00:00:00,mfh,13.97
2021-12-28T00:01:00,mfh,13.95
2021-12-28T00:02:00,mfh,13.86
2021-12-28T00:03:00,mfh,14.49
2021-12-28T00:04:00,mfh,14.48
2021-12-28T00:05:00,mfh,14.62
2021-12-28T00:06:00,mfh,14.94
2021-12-28T00:07:00,mfh,14.43
2021-12-28T00:08:00,mfh,15.72
2021-12-28T00:09:00,mfh,16.04
2021-12-28T00:10:00,mfh,15.83
2021-12-28T00:11:00,mfh,16.58
2021-12-28T00:12:00,mfh,16.67
2021-12-28T00:13:00,mfh,17.30
2021-12-28T00:14:00,mfh,16.61
2021-12-28T00:15:00,mfh,16.49
2021-12-28T00:16:00,mfh,15.94
2021-12-28T00:17:00,mfh,15.99
2021-12-28T00:18:00,mfh,15.99
2021-12-28T00:19:00,mfh,15.98
2021-12-28T00:20:00,mfh,16.54
2021-12-28T00:21:00,mfh,16.90
2021-12-28T00:22:00,mfh,16.88
2021-12-28T00:23:00,mfh,16.87
2021-12-28T00:24:00,mfh,16.16
2021-12-28T00:25:00,mfh,16.74
2021-12-28T00:26:00,mfh,16.21
2021-12-28T00:27:00,mfh,16.55
2021-12-28T00:28:00,mfh,16.56
2021-12-28T00:29:00,mfh,16.59
2021-12-28T00:30:00,mfh,17.10
2021-12-28T00:31:00,mfh,16.51
2021-12-28T00:32:00,mfh,14.80
2021-12-28T00:33:00,mfh,13.90
2021-12-28T00:34:00,mfh,13.87
2021-12-28T00:35:00,mfh,14.54
2021-12-28T00:36:00,mfh,15.18
2021-12-28T00:37:00,mfh,14.66
2021-12-28T00:38:00,mfh,14.68
2021-12-28T00:39:00,mfh,14.62
2021-12-28T00:40:00,mfh,15.06
2021-12-28T00:41:00,mfh,14.01
2021-12-28T00:42:00,mfh,14.84
2021-12-28T00:43:00,mfh,13.94
2021-12-28T00:44:00,mfh,14.53
2021-12-28T00:45:00,mfh,14.59
2021-12-28T00:46:00,mfh,14.71
2021-12-28T00:47:00,mfh,15.14
2021-12-28T00:48:00,mfh,14.76
2021-12-28T00:49:00,mfh,15.03
2021-12-28T00:50:00,mfh,14.38
2021-12-28T00:51:00,mfh,14.40
2021-12-28T00:52:00,mfh,14.38
2021-12-28T00:53:00,mfh,14.32
2021-12-28T00:54:00,mfh,14.95
2021-12-28T00:55:00,mfh,15.04
2021-12-28T00:56:00,mfh,15.12
2021-12-28T00:57:00,mfh,15.15
2021-12-28T00:58:00,mfh,14.33
2021-12-28T00:59:00,mfh,14.32
2021-12-28T01:00:00,mfh,14.13
2021-12-28T01:01:00,mfh,14.53
2021-12-28T01:02:00,mfh,15.41
2021-12-28T01:03:00,mfh,14.98
2021-12-28T01:04:00,mfh,15.05
2021-12-28T01:05:00,mfh,14.75
2021-12-28T01:06:00,mfh,14.11
2021-12-28T01:07:00,mfh,14.26
2021-12-28T01:08:00,mfh,14.11
2021-12-28T01:09:00,mfh,14.01
2021-12-28T01:10:00,mfh,14.60
2021-12-28T01:11:00,mfh,14.60
2021-12-28T01:12:00,mfh,14.54
2021-12-28T01:13:00,mfh,14.49
2021-12-28T01:14:00,mfh,15.20
2021-12-28T01:15:00,mfh,22.58
2021-12-28T01:16:00,mfh,15.84
2021-12-28T01:17:00,mfh,15.74
2021-12-28T01:18:00,mfh,15.61
2021-12-28T01:19:00,mfh,16.13
2021-12-28T01:20:00,mfh,16.15
2021-12-28T01:21:00,mfh,16.14
2021-12-28T01:22:00,mfh,16.26
2021-12-28T01:23:00,mfh,15.59
2021-12-28T01:24:00,mfh,15.56
2021-12-28T01:25:00,mfh,15.69
2021-12-28T01:26:00,mfh,15.58
2021-12-28T01:27:00,mfh,16.21
2021-12-28T01:28:00,mfh,17.34
2021-12-28T01:29:00,mfh,16.20
2021-12-28T01:30:00,mfh,16.21
2021-12-28T01:31:00,mfh,16.16
2021-12-28T01:32:00,mfh,15.46
2021-12-28T01:33:00,mfh,15.37
2021-12-28T01:34:00,mfh,15.29
2021-12-28T01:35:00,mfh,15.35
2021-12-28T01:36:00,mfh,16.00
2021-12-28T01:37:00,mfh,16.20
2021-12-28T01:38:00,mfh,16.26
2021-12-28T01:39:00,mfh,14.30
2021-12-28T01:40:00,mfh,13.78
2021-12-28T01:41:00,mfh,13.77
2021-12-28T01:42:00,mfh,14.08
2021-12-28T01:43:00,mfh,14.34
2021-12-28T01:44:00,mfh,14.23
2021-12-28T01:45:00,mfh,14.28
2021-12-28T01:46:00,mfh,14.26
2021-12-28T01:47:00,mfh,14.43
2021-12-28T01:48:00,mfh,15.08
2021-12-28T01:49:00,mfh,14.53
2021-12-28T01:50:00,mfh,14.53
2021-12-28T01:51:00,mfh,14.57
2021-12-28T01:52:00,mfh,13.77
2021-12-28T01:53:00,mfh,14.50
2021-12-28T01:54:00,mfh,14.50
2021-12-28T01:55:00,mfh,14.54
2021-12-28T01:56:00,mfh,15.88
2021-12-28T01:57:00,mfh,13.78
2021-12-28T01:58:00,mfh,13.72
2021-12-28T01:59:00,mfh,13.71
2021-12-28T02:00:00,mfh,13.72
2021-12-28T02:01:00,mfh,14.41
2021-12-28T02:02:00,mfh,14.45
2021-12-28T02:03:00,mfh,14.46
2021-12-28T02:04:00,mfh,14.59
2021-12-28T02:05:00,mfh,13.88
2021-12-28T02:06:00,mfh,14.75
2021-12-28T02:07:00,mfh,14.07
2021-12-28T02:08:00,mfh,14.22
2021-12-28T02:09:00,mfh,14.55
2021-12-28T02:10:00,mfh,14.76
2021-12-28T02:11:00,mfh,14.78
2021-12-28T02:12:00,mfh,14.96
2021-12-28T02:13:00,mfh,14.87
2021-12-28T02:14:00,mfh,13.94
2021-12-28T02:15:00,mfh,13.82
2021-12-28T02:16:00,mfh,13.82
2021-12-28T02:17:00,mfh,13.78
2021-12-28T02:18:00,mfh,14.65
2021-12-28T02:19:00,mfh,14.59
2021-12-28T02:20:00,mfh,14.62
2021-12-28T02:21:00,mfh,14.68
2021-12-28T02:22:00,mfh,13.94
2021-12-28T02:23:00,mfh,16.03
2021-12-28T02:24:00,mfh,16.01
2021-12-28T02:25:00,mfh,16.09
2021-12-28T02:26:00,mfh,16.70
2021-12-28T02:27:00,mfh,16.81
2021-12-28T02:28:00,mfh,16.83
2021-12-28T02:29:00,mfh,17.19
2021-12-28T02:30:00,mfh,16.06
2021-12-28T02:31:00,mfh,17.00
2021-12-28T02:32:00,mfh,16.12
2021-12-28T02:33:00,mfh,16.79
2021-12-28T02:34:00,mfh,17.33
2021-12-28T02:35:00,mfh,16.85
2021-12-28T02:36:00,mfh,16.83
2021-12-28T02:37:00,mfh,16.87
2021-12-28T02:38:00,mfh,17.57
2021-12-28T02:39:00,mfh,16.51
2021-12-28T02:40:00,mfh,16.35
2021-12-28T02:41:00,mfh,16.30
2021-12-28T02:42:00,mfh,16.29
2021-12-28T02:43:00,mfh,16.50
2021-12-28T02:44:00,mfh,16.70
2021-12-28T02:45:00,mfh,16.53
2021-12-28T02:46:00,mfh,15.24
2021-12-28T02:47:00,mfh,14.42
2021-12-28T02:48:00,mfh,14.18
2021-12-28T02:49:00,mfh,13.84
2021-12-28T02:50:00,mfh,13.83
2021-12-28T02:51:00,mfh,14.40
2021-12-28T02:52:00,mfh,14.46
2021-12-28T02:53:00,mfh,14.52
2021-12-28T02:54:00,mfh,14.66
2021-12-28T02:55:00,mfh,14.71
2021-12-28T02:56:00,mfh,15.85
2021-12-28T02:57:00,mfh,14.10
2021-12-28T02:58:00,mfh,13.95
2021-12-28T02:59:00,mfh,13.86
2021-12-28T03:00:00,mfh,14.58
2021-12-28T03:01:00,mfh,14.62
2021-12-28T03:02:00,mfh,14.62
2021-12-28T03:03:00,mfh,14.55
2021-12-28T03:04:00,mfh,13.86
2021-12-28T03:05:00,mfh,13.88
2021-12-28T03:06:00,mfh,13.80
2021-12-28T03:07:00,mfh,13.84
2021-12-28T03:08:00,mfh,14.58
2021-12-28T03:09:00,mfh,14.62
2021-12-28T03:10:00,mfh,14.71
2021-12-28T03:11:00,mfh,15.40
2021-12-28T03:12:00,mfh,14.52
2021-12-28T03:13:00,mfh,13.60
2021-12-28T03:14:00,mfh,13.56
2021-12-28T03:15:00,mfh,13.55
2021-12-28T03:16:00,mfh,13.57
2021-12-28T03:17:00,mfh,14.27
2021-12-28T03:18:00,mfh,14.32
2021-12-28T03:19:00,mfh,14.33
2021-12-28T03:20:00,mfh,14.37
2021-12-28T03:21:00,mfh,13.84
2021-12-28T03:22:00,mfh,13.88
2021-12-28T03:23:00,mfh,13.99
2021-12-28T03:24:00,mfh,13.94
2021-12-28T03:25:00,mfh,14.62
2021-12-28T03:26:00,mfh,14.63
2021-12-28T03:27:00,mfh,14.59
2021-12-28T03:28:00,mfh,14.51
2021-12-28T03:29:00,mfh,14.39
2021-12-28T03:30:00,mfh,13.84
2021-12-28T03:31:00,mfh,15.76
2021-12-28T03:32:00,mfh,15.68
2021-12-28T03:33:00,mfh,16.16
2021-12-28T03:34:00,mfh,16.26
2021-12-28T03:35:00,mfh,16.38
2021-12-28T03:36:00,mfh,16.38
2021-12-28T03:37:00,mfh,16.32
2021-12-28T03:38:00,mfh,15.87
2021-12-28T03:39:00,mfh,15.88
2021-12-28T03:40:00,mfh,15.86
2021-12-28T03:41:00,mfh,15.86
2021-12-28T03:42:00,mfh,16.61
2021-12-28T03:43:00,mfh,16.85
2021-12-28T03:44:00,mfh,16.69
2021-12-28T03:45:00,mfh,16.80
2021-12-28T03:46:00,mfh,16.26
2021-12-28T03:47:00,mfh,16.02
2021-12-28T03:48:00,mfh,16.02
2021-12-28T03:49:00,mfh,16.09
2021-12-28T03:50:00,mfh,16.92
2021-12-28T03:51:00,mfh,16.55
2021-12-28T03:52:00,mfh,16.52
2021-12-28T03:53:00,mfh,16.53
2021-12-28T03:54:00,mfh,13.84
2021-12-28T03:55:00,mfh,14.45
2021-12-28T03:56:00,mfh,13.90
2021-12-28T03:57:00,mfh,14.62
2021-12-28T03:58:00,mfh,15.00
2021-12-28T03:59:00,mfh,15.50
2021-12-28T04:00:00,mfh,15.35
2021-12-28T04:01:00,mfh,14.85
2021-12-28T04:02:00,mfh,14.52
2021-12-28T04:03:00,mfh,13.82
2021-12-28T04:04:00,mfh,14.33
2021-12-28T04:05:00,mfh,13.85
2021-12-28T04:06:00,mfh,13.83
2021-12-28T04:07:00,mfh,14.85
2021-12-28T04:08:00,mfh,14.77
2021-12-28T04:09:00,mfh,14.55
2021-12-28T04:10:00,mfh,14.73
2021-12-28T04:11:00,mfh,14.12
2021-12-28T04:12:00,mfh,14.06
2021-12-28T04:13:00,mfh,13.79
2021-12-28T04:14:00,mfh,13.71
2021-12-28T04:15:00,mfh,14.26
2021-12-28T04:16:00,mfh,14.36
2021-12-28T04:17:00,mfh,14.36
2021-12-28T04:18:00,mfh,14.29
2021-12-28T04:19:00,mfh,14.31
2021-12-28T04:20:00,mfh,13.62
2021-12-28T04:21:00,mfh,13.57
2021-12-28T04:22:00,mfh,13.57
2021-12-28T04:23:00,mfh,14.20
2021-12-28T04:24:00,mfh,14.31
2021-12-28T04:25:00,mfh,14.26
2021-12-28T04:26:00,mfh,14.36
2021-12-28T04:27:00,mfh,14.35
2021-12-28T04:28:00,mfh,13.65
2021-12-28T04:29:00,mfh,13.66
2021-12-28T04:30:00,mfh,13.64
2021-12-28T04:31:00,mfh,13.75
2021-12-28T04:32:00,mfh,14.38
2021-12-28T04:33:00,mfh,14.37
2021-12-28T04:34:00,mfh,14.38
2021-12-28T04:35:00,mfh,14.45
2021-12-28T04:36:00,mfh,14.37
2021-12-28T04:37:00,mfh,13.83
2021-12-28T04:38:00,mfh,13.82
2021-12-28T04:39:00,mfh,15.84
2021-12-28T04:40:00,mfh,16.39
2021-12-28T04:41:00,mfh,16.54
2021-12-28T04:42:00,mfh,16.53
2021-12-28T04:43:00,mfh,16.54
2021-12-28T04:44:00,mfh,16.44
2021-12-28T04:45:00,mfh,15.67
2021-12-28T04:46:00,mfh,16.50
2021-12-28T04:47:00,mfh,15.69
2021-12-28T04:48:00,mfh,15.68
2021-12-28T04:49:00,mfh,16.39
2021-12-28T04:50:00,mfh,16.44
2021-12-28T04:51:00,mfh,16.46
2021-12-28T04:52:00,mfh,16.40
2021-12-28T04:53:00,mfh,16.29
2021-12-28T04:54:00,mfh,15.67
2021-12-28T04:55:00,mfh,15.64
2021-12-28T04:56:00,mfh,15.83
2021-12-28T04:57:00,mfh,16.46
2021-12-28T04:58:00,mfh,16.46
2021-12-28T04:59:00,mfh,16.47
2021-12-28T05:00:00,mfh,16.44
2021-12-28T05:01:00,mfh,34.30
2021-12-28T05:02:00,mfh,33.68
2021-12-28T05:03:00,mfh,33.85
2021-12-28T05:04:00,mfh,33.67
2021-12-28T05:05:00,mfh,33.58
2021-12-28T05:06:00,mfh,34.09
2021-12-28T05:07:00,mfh,33.72
2021-12-28T05:08:00,mfh,33.11
2021-12-28T05:09:00,mfh,33.30
2021-12-28T05:10:00,mfh,32.93
2021-12-28T05:11:00,mfh,33.62
2021-12-28T05:12:00,mfh,33.16
2021-12-28T05:13:00,mfh,33.64
2021-12-28T05:14:00,mfh,33.80
2021-12-28T05:15:00,mfh,34.45
2021-12-28T05:16:00,mfh,34.26
2021-12-28T05:17:00,mfh,34.41
2021-12-28T05:18:00,mfh,34.23
2021-12-28T05:19:00,mfh,33.52
2021-12-28T05:20:00,mfh,34.10
2021-12-28T05:21:00,mfh,33.66
2021-12-28T05:22:00,mfh,33.72
2021-12-28T05:23:00,mfh,35.20
2021-12-28T05:24:00,mfh,34.31
2021-12-28T05:25:00,mfh,34.27
2021-12-28T05:26:00,mfh,35.06
2021-12-28T05:27:00,mfh,33.66
2021-12-28T05:28:00,mfh,33.73
2021-12-28T05:29:00,mfh,33.48
2021-12-28T05:30:00,mfh,33.57
2021-12-28T05:31:00,mfh,34.24
2021-12-28T05:32:00,mfh,34.11
2021-12-28T05:33:00,mfh,34.15
2021-12-28T05:34:00,mfh,34.23
2021-12-28T05:35:00,mfh,33.44
2021-12-28T05:36:00,mfh,33.40
2021-12-28T05:37:00,mfh,33.81
2021-12-28T05:38:00,mfh,33.54
2021-12-28T05:39:00,mfh,33.49
2021-12-28T05:40:00,mfh,34.75
2021-12-28T05:41:00,mfh,34.27
2021-12-28T05:42:00,mfh,34.16
2021-12-28T05:43:00,mfh,34.16
2021-12-28T05:44:00,mfh,33.46
2021-12-28T05:45:00,mfh,33.57
2021-12-28T05:46:00,mfh,33.71
2021-12-28T05:47:00,mfh,34.02
2021-12-28T05:48:00,mfh,34.24
2021-12-28T05:49:00,mfh,34.14
2021-12-28T05:50:00,mfh,34.72
2021-12-28T05:51:00,mfh,36.17
2021-12-28T05:52:00,mfh,35.42
2021-12-28T05:53:00,mfh,35.34
2021-12-28T05:54:00,mfh,35.29
2021-12-28T05:55:00,mfh,35.32
2021-12-28T05:56:00,mfh,35.87
2021-12-28T05:57:00,mfh,35.94
2021-12-28T05:58:00,mfh,35.93
2021-12-28T05:59:00,mfh,35.86
2021-12-28T06:00:00,mfh,35.92
2021-12-28T06:01:00,mfh,35.15
2021-12-28T06:02:00,mfh,35.09
2021-12-28T06:03:00,mfh,35.64
2021-12-28T06:04:00,mfh,36.72
2021-12-28T06:05:00,mfh,36.26
2021-12-28T06:06:00,mfh,36.86
2021-12-28T06:07:00,mfh,36.87
2021-12-28T06:08:00,mfh,37.36
2021-12-28T06:09:00,mfh,36.39
2021-12-28T06:10:00,mfh,36.10
2021-12-28T06:11:00,mfh,36.41
2021-12-28T06:12:00,mfh,35.21
2021-12-28T06:13:00,mfh,34.02
2021-12-28T06:14:00,mfh,34.12
2021-12-28T06:15:00,mfh,34.06
2021-12-28T06:16:00,mfh,34.18
2021-12-28T06:17:00,mfh,34.18
2021-12-28T06:18:00,mfh,33.53
2021-12-28T06:19:00,mfh,33.36
2021-12-28T06:20:00,mfh,33.37
2021-12-28T06:21:00,mfh,33.38
2021-12-28T06:22:00,mfh,34.03
2021-12-28T06:23:00,mfh,34.10
2021-12-28T06:24:00,mfh,34.08
2021-12-28T06:25:00,mfh,34.34
2021-12-28T06:26:00,mfh,33.38
2021-12-28T06:27:00,mfh,33.31
2021-12-28T06:28:00,mfh,33.36
2021-12-28T06:29:00,mfh,33.45
2021-12-28T06:30:00,mfh,34.43
2021-12-28T06:31:00,mfh,34.33
2021-12-28T06:32:00,mfh,34.25
2021-12-28T06:33:00,mfh,34.88
2021-12-28T06:34:00,mfh,34.16
2021-12-28T06:35:00,mfh,33.48
2021-12-28T06:36:00,mfh,33.50
2021-12-28T06:37:00,mfh,33.47
2021-12-28T06:38:00,mfh,34.51
2021-12-28T06:39:00,mfh,34.39
2021-12-28T06:40:00,mfh,34.44
2021-12-28T06:41:00,mfh,34.67
2021-12-28T06:42:00,mfh,35.05
2021-12-28T06:43:00,mfh,33.99
2021-12-28T06:44:00,mfh,33.75
2021-12-28T06:45:00,mfh,33.76
2021-12-28T06:46:00,mfh,33.87
2021-12-28T06:47:00,mfh,34.43
2021-12-28T06:48:00,mfh,34.43
2021-12-28T06:49:00,mfh,34.68
2021-12-28T06:50:00,mfh,34.35
2021-12-28T06:51:00,mfh,34.32
2021-12-28T06:52:00,mfh,33.98
2021-12-28T06:53:00,mfh,33.71
2021-12-28T06:54:00,mfh,33.93
2021-12-28T06:55:00,mfh,34.16
2021-12-28T06:56:00,mfh,34.19
2021-12-28T06:57:00,mfh,34.44
2021-12-28T06:58:00,mfh,34.27
2021-12-28T06:59:00,mfh,34.81
2021-12-28T07:00:00,mfh,33.53
2021-12-28T07:01:00,mfh,33.55
2021-12-28T07:02:00,mfh,33.57
2021-12-28T07:03:00,mfh,33.51
2021-12-28T07:04:00,mfh,34.20
2021-12-28T07:05:00,mfh,34.26
2021-12-28T07:06:00,mfh,34.27
2021-12-28T07:07:00,mfh,34.09
2021-12-28T07:08:00,mfh,33.38
2021-12-28T07:09:00,mfh,35.24
2021-12-28T07:10:00,mfh,35.28
2021-12-28T07:11:00,mfh,35.20
2021-12-28T07:12:00,mfh,35.81
2021-12-28T07:13:00,mfh,35.88
2021-12-28T07:14:00,mfh,35.77
2021-12-28T07:15:00,mfh,35.84
2021-12-28T07:16:00,mfh,36.46
2021-12-28T07:17:00,mfh,36.41
2021-12-28T07:18:00,mfh,35.46
2021-12-28T07:19:00,mfh,35.17
2021-12-28T07:20:00,mfh,34.63
2021-12-28T07:21:00,mfh,35.28
2021-12-28T07:22:00,mfh,35.07
2021-12-28T07:23:00,mfh,35.11
2021-12-28T07:24:00,mfh,35.14
2021-12-28T07:25:00,mfh,34.40
2021-12-28T07:26:00,mfh,34.34
2021-12-28T07:27:00,mfh,34.13
2021-12-28T07:28:00,mfh,34.27
2021-12-28T07:29:00,mfh,34.98
2021-12-28T07:30:00,mfh,35.09
2021-12-28T07:31:00,mfh,33.22
2021-12-28T07:32:00,mfh,33.20
2021-12-28T07:33:00,mfh,32.53
2021-12-28T07:34:00,mfh,32.42
2021-12-28T07:35:00,mfh,32.45
2021-12-28T07:36:00,mfh,32.36
2021-12-28T07:37:00,mfh,32.97
2021-12-28T07:38:00,mfh,32.97
2021-12-28T07:39:00,mfh,33.09
2021-12-28T07:40:00,mfh,33.04
2021-12-28T07:41:00,mfh,33.05
2021-12-28T07:42:00,mfh,32.34
2021-12-28T07:43:00,mfh,32.34
2021-12-28T07:44:00,mfh,32.37
2021-12-28T07:45:00,mfh,32.38
2021-12-28T07:46:00,mfh,32.97
2021-12-28T07:47:00,mfh,33.45
2021-12-28T07:48:00,mfh,32.91
2021-12-28T07:49:00,mfh,33.07
2021-12-28T07:50:00,mfh,32.36
2021-12-28T07:51:00,mfh,32.39
2021-12-28T07:52:00,mfh,32.34
2021-12-28T07:53:00,mfh,32.77
2021-12-28T07:54:00,mfh,33.43
2021-12-28T07:55:00,mfh,33.31
2021-12-28T07:56:00,mfh,33.21
2021-12-28T07:57:00,mfh,33.85
2021-12-28T07:58:00,mfh,32.32
2021-12-28T07:59:00,mfh,32.41
2021-12-28T08:00:00,mfh,32.24
2021-12-28T08:01:00,mfh,32.26
2021-12-28T08:02:00,mfh,33.63
2021-12-28T08:03:00,mfh,32.97
2021-12-28T08:04:00,mfh,32.80
2021-12-28T08:05:00,mfh,32.77
2021-12-28T08:06:00,mfh,32.69
2021-12-28T08:07:00,mfh,32.12
2021-12-28T08:08:00,mfh,32.15
2021-12-28T08:09:00,mfh,32.20
2021-12-28T08:10:00,mfh,33.73
2021-12-28T08:11:00,mfh,34.53
2021-12-28T08:12:00,mfh,34.35
2021-12-28T08:13:00,mfh,35.19
2021-12-28T08:14:00,mfh,35.16
2021-12-28T08:15:00,mfh,34.38
2021-12-28T08:16:00,mfh,33.55
2021-12-28T08:17:00,mfh,31.77
2021-12-28T08:18:00,mfh,31.84
2021-12-28T08:19:00,mfh,32.44
2021-12-28T08:20:00,mfh,32.50
2021-12-28T08:21:00,mfh,32.64
2021-12-28T08:22:00,mfh,32.58
2021-12-28T08:23:00,mfh,32.57
2021-12-28T08:24:00,mfh,31.96
2021-12-28T08:25:00,mfh,31.89
2021-12-28T08:26:00,mfh,32.02
2021-12-28T08:27:00,mfh,31.89
2021-12-28T08:28:00,mfh,35.43
2021-12-28T08:29:00,mfh,34.45
2021-12-28T08:30:00,mfh,34.62
2021-12-28T08:31:00,mfh,34.94
2021-12-28T08:32:00,mfh,34.22
2021-12-28T08:33:00,mfh,34.11
2021-12-28T08:34:00,mfh,34.12
2021-12-28T08:35:00,mfh,34.19
2021-12-28T08:36:00,mfh,34.87
2021-12-28T08:37:00,mfh,34.64
2021-12-28T08:38:00,mfh,34.54
2021-12-28T08:39:00,mfh,34.51
2021-12-28T08:40:00,mfh,34.64
2021-12-28T08:41:00,mfh,34.01
2021-12-28T08:42:00,mfh,33.86
2021-12-28T08:43:00,mfh,34.14
2021-12-28T08:44:00,mfh,34.18
2021-12-28T08:45:00,mfh,34.69
2021-12-28T08:46:00,mfh,34.80
2021-12-28T08:47:00,mfh,34.39
2021-12-28T08:48:00,mfh,34.44
2021-12-28T08:49:00,mfh,33.07
2021-12-28T08:50:00,mfh,31.18
2021-12-28T08:51:00,mfh,31.08
2021-12-28T08:52:00,mfh,31.17
2021-12-28T08:53:00,mfh,31.84
2021-12-28T08:54:00,mfh,31.86
2021-12-28T08:55:00,mfh,31.84
2021-12-28T08:56:00,mfh,31.77
2021-12-28T08:57:00,mfh,31.40
2021-12-28T08:58:00,mfh,31.35
2021-12-28T08:59:00,mfh,31.28
2021-12-28T09:00:00,mfh,31.27
2021-12-28T09:01:00,mfh,32.10
2021-12-28T09:02:00,mfh,32.34
2021-12-28T09:03:00,mfh,32.51
2021-12-28T09:04:00,mfh,31.78
2021-12-28T09:05:00,mfh,31.91
2021-12-28T09:06:00,mfh,31.32
2021-12-28T09:07:00,mfh,31.15
2021-12-28T09:08:00,mfh,31.17
2021-12-28T09:09:00,mfh,31.21
2021-12-28T09:10:00,mfh,31.88
2021-12-28T09:11:00,mfh,32.01
2021-12-28T09:12:00,mfh,32.04
2021-12-28T09:13:00,mfh,32.03
2021-12-28T09:14:00,mfh,31.30
2021-12-28T09:15:00,mfh,31.82
2021-12-28T09:16:00,mfh,31.38
2021-12-28T09:17:00,mfh,31.21
2021-12-28T09:18:00,mfh,32.09
2021-12-28T09:19:00,mfh,32.00
2021-12-28T09:20:00,mfh,32.73
2021-12-28T09:21:00,mfh,32.67
2021-12-28T09:22:00,mfh,32.23
2021-12-28T09:23:00,mfh,32.29
2021-12-28T09:24:00,mfh,31.88
2021-12-28T09:25:00,mfh,31.77
2021-12-28T09:26:00,mfh,32.02
2021-12-28T09:27:00,mfh,32.67
2021-12-28T09:28:00,mfh,32.37
2021-12-28T09:29:00,mfh,32.33
2021-12-28T09:30:00,mfh,32.29
2021-12-28T09:31:00,mfh,31.43
2021-12-28T09:32:00,mfh,31.59
2021-12-28T09:33:00,mfh,31.47
2021-12-28T09:34:00,mfh,32.21
2021-12-28T09:35:00,mfh,32.05
2021-12-28T09:36:00,mfh,32.02
2021-12-28T09:37:00,mfh,32.22
2021-12-28T09:38:00,mfh,32.11
2021-12-28T09:39:00,mfh,31.40
2021-12-28T09:40:00,mfh,31.45
2021-12-28T09:41:00,mfh,31.35
2021-12-28T09:42:00,mfh,31.43
2021-12-28T09:43:00,mfh,31.57
2021-12-28T09:44:00,mfh,32.40
2021-12-28T09:45:00,mfh,31.79
2021-12-28T09:46:00,mfh,31.83
2021-12-28T09:47:00,mfh,40.08
2021-12-28T09:48:00,mfh,32.97
2021-12-28T09:49:00,mfh,33.05
2021-12-28T09:50:00,mfh,33.43
2021-12-28T09:51:00,mfh,33.41
2021-12-28T09:52:00,mfh,34.13
2021-12-28T09:53:00,mfh,33.85
2021-12-28T09:54:00,mfh,33.91
2021-12-28T09:55:00,mfh,33.73
2021-12-28T09:56:00,mfh,33.10
2021-12-28T09:57:00,mfh,33.06
2021-12-28T09:58:00,mfh,33.20
2021-12-28T09:59:00,mfh,33.15
2021-12-28T10:00:00,mfh,34.19
2021-12-28T10:01:00,mfh,33.77
2021-12-28T10:02:00,mfh,34.20
2021-12-28T10:03:00,mfh,34.09
2021-12-28T10:04:00,mfh,33.33
2021-12-28T10:05:00,mfh,33.37
2021-12-28T10:06:00,mfh,33.41
2021-12-28T10:07:00,mfh,34.37
2021-12-28T10:08:00,mfh,32.10
2021-12-28T10:09:00,mfh,32.20
2021-12-28T10:10:00,mfh,32.22
2021-12-28T10:11:00,mfh,32.60
2021-12-28T10:12:00,mfh,32.34
2021-12-28T10:13:00,mfh,31.63
2021-12-28T10:14:00,mfh,31.62
2021-12-28T10:15:00,mfh,31.74
2021-12-28T10:16:00,mfh,31.57
2021-12-28T10:17:00,mfh,32.09
2021-12-28T10:18:00,mfh,32.01
2021-12-28T10:19:00,mfh,32.10
2021-12-28T10:20:00,mfh,32.14
2021-12-28T10:21:00,mfh,31.56
2021-12-28T10:22:00,mfh,32.70
2021-12-28T10:23:00,mfh,31.84
2021-12-28T10:24:00,mfh,31.58
2021-12-28T10:25:00,mfh,33.55
2021-12-28T10:26:00,mfh,33.38
2021-12-28T10:27:00,mfh,32.78
2021-12-28T10:28:00,mfh,32.91
2021-12-28T10:29:00,mfh,32.07
2021-12-28T10:30:00,mfh,31.56
2021-12-28T10:31:00,mfh,31.79
2021-12-28T10:32:00,mfh,31.64
2021-12-28T10:33:00,mfh,32.20
2021-12-28T10:34:00,mfh,32.32
2021-12-28T10:35:00,mfh,32.22
2021-12-28T10:36:00,mfh,32.01
2021-12-28T10:37:00,mfh,32.16
2021-12-28T10:38:00,mfh,32.71
2021-12-28T10:39:00,mfh,31.34
2021-12-28T10:40:00,mfh,31.31
2021-12-28T10:41:00,mfh,31.35
2021-12-28T10:42:00,mfh,31.41
2021-12-28T10:43:00,mfh,32.08
2021-12-28T10:44:00,mfh,32.12
2021-12-28T10:45:00,mfh,32.17
2021-12-28T10:46:00,mfh,32.42
2021-12-28T10:47:00,mfh,31.47
2021-12-28T10:48:00,mfh,31.59
2021-12-28T10:49:00,mfh,31.61
2021-12-28T10:50:00,mfh,31.59
2021-12-28T10:51:00,mfh,32.14
2021-12-28T10:52:00,mfh,32.20
2021-12-28T10:53:00,mfh,32.18
2021-12-28T10:54:00,mfh,32.34
2021-12-28T10:55:00,mfh,31.46
2021-12-28T10:56:00,mfh,31.62
2021-12-28T10:57:00,mfh,31.84
2021-12-28T10:58:00,mfh,31.82
2021-12-28T10:59:00,mfh,32.62
2021-12-28T11:00:00,mfh,32.60
2021-12-28T11:01:00,mfh,32.78
2021-12-28T11:02:00,mfh,32.59
2021-12-28T11:03:00,mfh,31.84
2021-12-28T11:04:00,mfh,31.84
2021-12-28T11:05:00,mfh,31.75
2021-12-28T11:06:00,mfh,31.82
2021-12-28T11:07:00,mfh,32.32
2021-12-28T11:08:00,mfh,32.39
2021-12-28T11:09:00,mfh,32.58
2021-12-28T11:10:00,mfh,32.38
2021-12-28T11:11:00,mfh,33.67
2021-12-28T11:12:00,mfh,33.90
2021-12-28T11:13:00,mfh,34.52
2021-12-28T11:14:00,mfh,34.02
2021-12-28T11:15:00,mfh,33.97
2021-12-28T11:16:00,mfh,34.62
2021-12-28T11:17:00,mfh,34.61
2021-12-28T11:18:00,mfh,34.64
2021-12-28T11:19:00,mfh,34.45
2021-12-28T11:20:00,mfh,33.79
2021-12-28T11:21:00,mfh,33.77
2021-12-28T11:22:00,mfh,33.69
2021-12-28T11:23:00,mfh,33.63
2021-12-28T11:24:00,mfh,34.85
2021-12-28T11:25:00,mfh,34.41
2021-12-28T11:26:00,mfh,34.34
2021-12-28T11:27:00,mfh,34.20
2021-12-28T11:28:00,mfh,33.68
2021-12-28T11:29:00,mfh,33.57
2021-12-28T11:30:00,mfh,33.68
2021-12-28T11:31:00,mfh,32.53
2021-12-28T11:32:00,mfh,32.38
2021-12-28T11:33:00,mfh,32.43
2021-12-28T11:34:00,mfh,32.47
2021-12-28T11:35:00,mfh,32.35
2021-12-28T11:36:00,mfh,32.27
2021-12-28T11:37:00,mfh,31.71
2021-12-28T11:38:00,mfh,30.95
2021-12-28T11:39:00,mfh,30.87
2021-12-28T11:40:00,mfh,31.48
2021-12-28T11:41:00,mfh,31.39
2021-12-28T11:42:00,mfh,31.44
2021-12-28T11:43:00,mfh,31.41
2021-12-28T11:44:00,mfh,31.38
2021-12-28T11:45:00,mfh,30.69
2021-12-28T11:46:00,mfh,30.66
2021-12-28T11:47:00,mfh,30.58
2021-12-28T11:48:00,mfh,30.66
2021-12-28T11:49:00,mfh,31.29
2021-12-28T11:50:00,mfh,31.41
2021-12-28T11:51:00,mfh,31.37
2021-12-28T11:52:00,mfh,31.57
2021-12-28T11:53:00,mfh,31.65
2021-12-28T11:54:00,mfh,31.18
2021-12-28T11:55:00,mfh,31.22
2021-12-28T11:56:00,mfh,31.14
2021-12-28T11:57:00,mfh,31.14
2021-12-28T11:58:00,mfh,31.98
2021-12-28T11:59:00,mfh,31.93
2021-12-28T12:00:00,mfh,31.91
2021-12-28T12:01:00,mfh,31.89
2021-12-28T12:02:00,mfh,31.38
2021-12-28T12:03:00,mfh,31.39
2021-12-28T12:04:00,mfh,31.33
2021-12-28T12:05:00,mfh,31.19
2021-12-28T12:06:00,mfh,31.54
2021-12-28T12:07:00,mfh,31.66
2021-12-28T12:08:00,mfh,31.53
2021-12-28T12:09:00,mfh,31.55
2021-12-28T12:10:00,mfh,30.84
2021-12-28T12:11:00,mfh,30.79
2021-12-28T12:12:00,mfh,30.87
2021-12-28T12:13:00,mfh,31.91
2021-12-28T12:14:00,mfh,31.38
2021-12-28T12:15:00,mfh,31.35
2021-12-28T12:16:00,mfh,31.33
2021-12-28T12:17:00,mfh,31.61
2021-12-28T12:18:00,mfh,31.19
2021-12-28T12:19:00,mfh,30.42
2021-12-28T12:20:00,mfh,30.85
2021-12-28T12:21:00,mfh,30.44
2021-12-28T12:22:00,mfh,30.57
2021-12-28T12:23:00,mfh,31.24
2021-12-28T12:24:00,mfh,31.17
2021-12-28T12:25:00,mfh,31.14
2021-12-28T12:26:00,mfh,31.30
2021-12-28T12:27:00,mfh,31.33
2021-12-28T12:28:00,mfh,30.66
2021-12-28T12:29:00,mfh,30.67
2021-12-28T12:30:00,mfh,30.54
2021-12-28T12:31:00,mfh,30.58
2021-12-28T12:32:00,mfh,32.08
2021-12-28T12:33:00,mfh,31.69
2021-12-28T12:34:00,mfh,31.20
2021-12-28T12:35:00,mfh,31.35
2021-12-28T12:36:00,mfh,30.49
2021-12-28T12:37:00,mfh,31.29
2021-12-28T12:38:00,mfh,30.77
2021-12-28T12:39:00,mfh,31.02
2021-12-28T12:40:00,mfh,31.54
2021-12-28T12:41:00,mfh,31.60
2021-12-28T12:42:00,mfh,31.58
2021-12-28T12:43:00,mfh,32.27
2021-12-28T12:44:00,mfh,31.67
2021-12-28T12:45:00,mfh,33.72
2021-12-28T12:46:00,mfh,33.55
2021-12-28T12:47:00,mfh,34.38
2021-12-28T12:48:00,mfh,33.27
2021-12-28T12:49:00,mfh,33.59
2021-12-28T12:50:00,mfh,33.18
2021-12-28T12:51:00,mfh,33.31
2021-12-28T12:52:00,mfh,33.31
2021-12-28T12:53:00,mfh,32.55
2021-12-28T12:54:00,mfh,32.51
2021-12-28T12:55:00,mfh,32.31
2021-12-28T12:56:00,mfh,32.85
2021-12-28T12:57:00,mfh,33.02
2021-12-28T12:58:00,mfh,33.01
2021-12-28T12:59:00,mfh,33.10
2021-12-28T13:00:00,mfh,33.60
2021-12-28T13:01:00,mfh,32.50
2021-12-28T13:02:00,mfh,32.64
2021-12-28T13:03:00,mfh,32.81
2021-12-28T13:04:00,mfh,31.18
2021-12-28T13:05:00,mfh,31.66
2021-12-28T13:06:00,mfh,31.66
2021-12-28T13:07:00,mfh,31.62
2021-12-28T13:08:00,mfh,31.62
2021-12-28T13:09:00,mfh,31.00
2021-12-28T13:10:00,mfh,30.91
2021-12-28T13:11:00,mfh,30.99
2021-12-28T13:12:00,mfh,31.03
2021-12-28T13:13:00,mfh,31.63
2021-12-28T13:14:00,mfh,31.42
2021-12-28T13:15:00,mfh,31.52
2021-12-28T13:16:00,mfh,31.51
2021-12-28T13:17:00,mfh,31.54
2021-12-28T13:18:00,mfh,30.81